This is the latest recevied weather packets stored in our database for station/object KF0JHJ. If no packets are shown the sender has not sent any weather packets the latest 10 day(s).
| Time | Temp. | Humidity | Pressure | Rain* | Wind** | Luminosity | Snow |
|---|---|---|---|---|---|---|---|
| 1778025843 | 8.89° C | 46% | 1009.1 hPa | - | - | 31 W/m² | - |
| 1778025539 | 8.89° C | 46% | 1008.9 hPa | - | - | 38 W/m² | - |
| 1778025238 | 8.89° C | 46% | 1008.9 hPa | - | - | 50 W/m² | - |
| 1778024934 | 8.89° C | 45% | 1008.9 hPa | - | - | 44 W/m² | - |
| 1778024632 | 9.44° C | 45% | 1008.9 hPa | - | - | 59 W/m² | - |
| 1778024328 | 8.89° C | 44% | 1008.6 hPa | - | - | 72 W/m² | - |
| 1778024026 | 9.44° C | 45% | 1008.9 hPa | - | - | 73 W/m² | - |
| 1778023724 | 9.44° C | 45% | 1008.6 hPa | - | - | 69 W/m² | - |
| 1778023421 | 9.44° C | 44% | 1008.7 hPa | - | - | 76 W/m² | - |
| 1778023118 | 8.89° C | 43% | 1008.8 hPa | - | - | 73 W/m² | - |
| 1778022815 | 9.44° C | 43% | 1008.5 hPa | - | - | 73 W/m² | - |
| 1778022513 | 9.44° C | 44% | 1008.6 hPa | - | - | 60 W/m² | - |
| 1778022210 | 9.44° C | 44% | 1008.6 hPa | - | - | 77 W/m² | - |
| 1778021907 | 9.44° C | 45% | 1008.7 hPa | - | - | 100 W/m² | - |
| 1778021605 | 9.44° C | 44% | 1008.7 hPa | - | - | 97 W/m² | - |
| 1778021305 | 9.44° C | 43% | 1008.9 hPa | - | - | 66 W/m² | - |
| 1778021003 | 9.44° C | 42% | 1008.6 hPa | - | - | 91 W/m² | - |
| 1778020700 | 10° C | 44% | 1008.5 hPa | - | - | 117 W/m² | - |
| 1778020397 | 9.44° C | 43% | 1008.7 hPa | - | - | 105 W/m² | - |
| 1778020093 | 10° C | 44% | 1008.4 hPa | - | - | 109 W/m² | - |
| 1778019789 | 10° C | 43% | 1008.6 hPa | - | - | 113 W/m² | - |
| 1778019486 | 10° C | 43% | 1008.6 hPa | - | - | 137 W/m² | - |
| 1778019183 | 10° C | 41% | 1008.3 hPa | - | - | 139 W/m² | - |
| 1778018880 | 10.56° C | 40% | 1008.3 hPa | - | - | 158 W/m² | - |
| 1778018577 | 10.56° C | 41% | 1008.3 hPa | - | - | 212 W/m² | - |
* Rain since midnight (hover to see other rain measurements)
** Current wind speed in m/s (hover to see current wind gust speed)